Starlink 30767

operational
NORAD ID: 58126 Int'l Des: 2023-162 Owner: SPXS Country: US Constellation: starlink
LEOCIRCULAR

Starlink 30767について

説明を読み込み中...

リアルタイム位置

3D地球を読み込み中...

次回通過

高度履歴

Altitude vs Time

uPlot chart will show altitude changes over time

軌道要素

1 58126U 23162J 25352.33618573 -.00001651 00000-0 -10714-3 0 9990
2 58126 43.0025 215.0323 0001061 261.1540 98.9182 15.02535874120067
Epoch: Dec 18, 2025 • Age: 19 hours

現在のステータス

高度 566.2 km
速度 7.58 km/s
衛星直下点 -29.07°S, 60.01°W
打ち上げ日 Oct 22, 2023
運用期間 2.1 years
タイプ internet

技術仕様

分類 Payload
質量 730.00 kg
乾燥質量 700.00 kg
総質量 730.00 kg
長さ 0.30 m
直径 4.10 m
スパン 29.00 m
形状 Box + pan
製造者 SPXS
バスタイプ Starlink V2M
フェーズステータス In Orbit
所有者/国 SPXS/US

大規模コンステレーション

Loading constellations...